Home > Weather > Breda > Past weeks

Flag for Netherlands Weather for the Past 2 Weeks in Breda, Netherlands

Now
75 °F

Mild.


Feels Like: 77 °F
Forecast: 51 / 76 °F
Wind: 14 mph from South

Location: Gilze-Rijen

Current Time: May 6, 2016 at 6:04:53 PM

Latest Report: May 6, 2016 at 5:25 PM


Visibility: N/A

Pressure: 29.83 "Hg

Humidity: 36%

Dew Point: 46 °F

Location of BredaLocation

Historic Weather in Breda — Graph

°F

Breda Temperature Yesterday

Maximum temperature yesterday: 66 °F (at 2:55 PM)
Minimum temperature yesterday: 43 °F (at 5:25 AM)
Average temperature yesterday: 56 °F

High & Low Weather Summary for the Past Weeks

 TemperatureHumidityPressure
High75 °F (May 6, 3:25 PM)100% (Apr 28, 4:55 AM)30.39 "Hg (Apr 28, 4:55 AM)
Low30 °F (Apr 28, 5:25 AM)24% (May 5, 3:25 PM)29.50 "Hg (Apr 26, 6:25 AM)
Average47 °F70%30.02 "Hg
* Reported Apr 21 4:25 PM — May 6 4:25 PM, Breda, Weather by CustomWeather, © 2016

Note: Actual official high and low records may vary slightly from our data, if they occured in-between our weather recording intervals... More about our weather records

Advertising

Breda Weather History for the Previous 24 Hours

Scroll right to see more
 ConditionsComfort  
Time TempWeatherWind HumidityBarometerVisibility
4:25 PM
Fri, May 6
75 °FPassing clouds.7 mph41%29.83 "HgN/A
3:55 PM75 °FScattered clouds.9 mph39%29.83 "HgN/A
3:25 PM75 °FPassing clouds.9 mph39%29.86 "HgN/A
2:55 PM73 °FMild.12 mph38%29.86 "HgN/A
2:25 PM73 °FMild.12 mph36%29.86 "HgN/A
1:55 PM72 °FMild.12 mph38%29.89 "HgN/A
1:25 PM72 °FScattered clouds.10 mph44%29.89 "HgN/A
12:55 PM70 °FMild.10 mph46%29.89 "HgN/A
12:25 PM70 °FMild.7 mph46%29.92 "HgN/A
11:55 AM66 °FMild.9 mph49%29.92 "HgN/A
11:25 AM66 °FMild.8 mph52%29.92 "HgN/A
10:55 AM66 °FMild.9 mph52%29.92 "HgN/A
10:25 AM64 °FPassing clouds.8 mph52%29.92 "HgN/A
9:55 AM63 °FPassing clouds.9 mph56%29.95 "HgN/A
9:25 AM61 °FRefreshingly cool.9 mph59%29.95 "HgN/A
8:55 AM59 °FCool.8 mph63%29.95 "HgN/A
8:25 AM57 °FPassing clouds.8 mph63%29.98 "HgN/A
7:55 AM55 °FCool.8 mph67%29.98 "HgN/A
7:25 AM54 °FPassing clouds.8 mph72%29.98 "HgN/A
6:55 AM52 °FCool.8 mph72%29.98 "HgN/A
6:25 AM50 °FCool.8 mph76%29.98 "HgN/A
5:55 AM50 °FCool.7 mph76%29.98 "HgN/A
5:25 AM50 °FCool.7 mph76%30.01 "HgN/A
4:55 AM52 °FCool.8 mph72%30.01 "HgN/A
4:25 AM48 °FCool.7 mph82%30.01 "HgN/A
3:55 AM50 °FHigh level clouds.7 mph76%30.01 "HgN/A
3:25 AM52 °FPassing clouds.6 mph72%30.01 "HgN/A
2:55 AM50 °FPassing clouds.6 mph76%30.04 "HgN/A
2:25 AM52 °FCool.5 mph72%30.04 "HgN/A
1:55 AM52 °FCool.5 mph72%30.04 "HgN/A
1:25 AM54 °FCool.5 mph67%30.04 "HgN/A
12:55 AM54 °FCool.5 mph67%30.04 "HgN/A
12:25 AM54 °FPassing clouds.3 mph67%30.07 "HgN/A
11:55 PM
Thu, May 5
55 °FCool.3 mph63%30.04 "HgN/A
11:25 PM55 °FCool.2 mph63%30.07 "HgN/A
10:55 PM57 °FRefreshingly cool.3 mph55%30.07 "HgN/A
10:25 PM57 °FRefreshingly cool.5 mph55%30.07 "HgN/A
9:55 PM57 °FRefreshingly cool.5 mph55%30.07 "HgN/A
9:25 PM61 °FRefreshingly cool.5 mph48%30.07 "HgN/A
8:55 PM61 °FRefreshingly cool.6 mph48%30.07 "HgN/A
8:25 PM64 °FMild.8 mph43%30.07 "HgN/A
7:55 PM66 °FMild.10 mph37%30.07 "HgN/A
7:25 PM66 °FMild.12 mph37%30.09 "HgN/A
6:55 PM66 °FMild.13 mph37%30.09 "HgN/A
6:25 PM66 °FPassing clouds.14 mph37%30.09 "HgN/A
Weather by CustomWeather, © 2016

See weather overviewHow to use our weather pages